Time,TemperatureF,DewpointF,PressureIn,WindDirection,WindDirectionDegrees,WindSpeedMPH,WindSpeedGustMPH,Humidity,HourlyPrecipIn,Conditions,Clouds,dailyrainin,SoftwareType,DateUTC
2013-06-09 00:01:00,72.1,68.0,30.05,SE,144,0.0,0.0,87,0.00,,,0.00,WUHU216DAVISVP2,2013-06-09 04:01:00,
2013-06-09 00:02:00,72.1,68.0,30.05,SE,144,0.0,0.0,87,0.00,,,0.00,WUHU216DAVISVP2,2013-06-09 04:02:00,
2013-06-09 00:07:00,72.3,68.2,30.05,SE,144,0.0,0.0,87,0.00,,,0.00,WUHU216DAVISVP2,2013-06-09 04:07:00,
2013-06-09 00:12:00,72.0,67.9,30.05,SE,144,0.0,0.0,87,0.00,,,0.00,WUHU216DAVISVP2,2013-06-09 04:12:00,
2013-06-09 00:17:00,72.0,67.9,30.05,SE,144,0.0,0.0,87,0.00,,,0.00,WUHU216DAVISVP2,2013-06-09 04:17:00,
2013-06-09 00:22:00,71.8,67.7,30.05,SE,144,0.0,0.0,87,0.00,,,0.00,WUHU216DAVISVP2,2013-06-09 04:22:00,
2013-06-09 00:27:00,71.8,68.1,30.05,SE,144,0.0,0.0,88,0.00,,,0.00,WUHU216DAVISVP2,2013-06-09 04:27:00,
2013-06-09 00:33:00,71.8,68.1,30.05,SE,144,0.0,0.0,88,0.00,,,0.00,WUHU216DAVISVP2,2013-06-09 04:33:00,
2013-06-09 00:38:00,72.1,68.4,30.05,SE,144,0.0,0.0,88,0.00,,,0.00,WUHU216DAVISVP2,2013-06-09 04:38:00,
2013-06-09 00:43:00,72.1,68.4,30.05,SE,144,0.0,0.0,88,0.00,,,0.00,WUHU216DAVISVP2,2013-06-09 04:43:00,
2013-06-09 00:48:00,72.1,68.4,30.05,SE,144,0.0,0.0,88,0.00,,,0.00,WUHU216DAVISVP2,2013-06-09 04:48:00,
2013-06-09 00:53:00,71.8,68.1,30.05,SE,144,0.0,0.0,88,0.00,,,0.00,WUHU216DAVISVP2,2013-06-09 04:53:00,
2013-06-09 00:58:00,71.8,68.1,30.05,SE,144,0.0,0.0,88,0.00,,,0.00,WUHU216DAVISVP2,2013-06-09 04:58:00,
2013-06-09 01:03:00,71.8,68.1,30.04,SE,144,0.0,0.0,88,0.00,,,0.00,WUHU216DAVISVP2,2013-06-09 05:03:00,
2013-06-09 01:08:00,71.8,68.1,30.04,SE,144,0.0,0.0,88,0.00,,,0.00,WUHU216DAVISVP2,2013-06-09 05:08:00,
2013-06-09 01:13:00,72.1,68.3,30.04,SE,144,0.0,0.0,88,0.00,,,0.00,WUHU216DAVISVP2,2013-06-09 05:13:00,
2013-06-09 01:18:00,72.1,68.4,30.05,SE,144,0.0,0.0,88,0.00,,,0.00,WUHU216DAVISVP2,2013-06-09 05:18:00,
2013-06-09 01:23:00,71.8,68.1,30.05,SE,144,0.0,0.0,88,0.00,,,0.00,WUHU216DAVISVP2,2013-06-09 05:23:00,
2013-06-09 01:28:00,72.0,68.3,30.05,SE,144,0.0,0.0,88,0.00,,,0.00,WUHU216DAVISVP2,2013-06-09 05:28:00,
2013-06-09 01:33:00,71.8,68.1,30.05,SE,144,0.0,0.0,88,0.00,,,0.00,WUHU216DAVISVP2,2013-06-09 05:33:00,
2013-06-09 01:38:00,71.6,67.9,30.05,SE,144,0.0,0.0,88,0.00,,,0.00,WUHU216DAVISVP2,2013-06-09 05:38:00,
2013-06-09 01:43:00,72.0,68.2,30.05,SE,144,0.0,0.0,88,0.00,,,0.00,WUHU216DAVISVP2,2013-06-09 05:43:00,
2013-06-09 01:48:00,71.8,68.1,30.05,SE,144,0.0,0.0,88,0.00,,,0.00,WUHU216DAVISVP2,2013-06-09 05:48:00,
2013-06-09 01:53:00,71.5,68.1,30.05,SE,144,0.0,0.0,89,0.00,,,0.00,WUHU216DAVISVP2,2013-06-09 05:53:00,
2013-06-09 01:58:00,71.5,67.8,30.04,SE,144,0.0,0.0,88,0.00,,,0.00,WUHU216DAVISVP2,2013-06-09 05:58:00,
2013-06-09 02:03:00,71.5,67.8,30.04,SE,144,0.0,0.0,88,0.00,,,0.00,WUHU216DAVISVP2,2013-06-09 06:03:00,
2013-06-09 02:08:00,71.3,67.9,30.04,SE,144,0.0,0.0,89,0.00,,,0.00,WUHU216DAVISVP2,2013-06-09 06:08:00,
2013-06-09 02:13:00,71.6,68.2,30.04,SE,144,0.0,0.0,89,0.00,,,0.00,WUHU216DAVISVP2,2013-06-09 06:13:00,
2013-06-09 02:18:00,71.6,68.2,30.04,SE,144,0.0,0.0,89,0.00,,,0.00,WUHU216DAVISVP2,2013-06-09 06:18:00,
2013-06-09 02:23:00,71.6,68.2,30.04,SE,144,0.0,0.0,89,0.00,,,0.00,WUHU216DAVISVP2,2013-06-09 06:23:00,
2013-06-09 02:28:00,71.3,67.9,30.04,SE,144,0.0,0.0,89,0.00,,,0.00,WUHU216DAVISVP2,2013-06-09 06:28:00,
2013-06-09 02:33:00,71.5,68.1,30.04,SE,144,0.0,0.0,89,0.00,,,0.00,WUHU216DAVISVP2,2013-06-09 06:33:00,
2013-06-09 02:38:00,71.5,68.1,30.04,SE,144,0.0,0.0,89,0.00,,,0.00,WUHU216DAVISVP2,2013-06-09 06:38:00,
2013-06-09 02:43:00,71.5,68.1,30.04,SE,144,0.0,0.0,89,0.00,,,0.00,WUHU216DAVISVP2,2013-06-09 06:43:00,
2013-06-09 02:48:00,71.3,67.9,30.04,SE,144,0.0,0.0,89,0.00,,,0.00,WUHU216DAVISVP2,2013-06-09 06:48:00,
2013-06-09 02:53:00,71.3,67.9,30.04,SE,144,0.0,0.0,89,0.00,,,0.00,WUHU216DAVISVP2,2013-06-09 06:53:00,
2013-06-09 02:58:00,70.8,67.4,30.04,SE,144,0.0,0.0,89,0.00,,,0.00,WUHU216DAVISVP2,2013-06-09 06:58:00,
2013-06-09 03:03:00,70.8,67.4,30.04,SE,144,0.0,0.0,89,0.00,,,0.00,WUHU216DAVISVP2,2013-06-09 07:03:00,
2013-06-09 03:08:00,70.8,67.4,30.04,SE,144,0.0,0.0,89,0.00,,,0.00,WUHU216DAVISVP2,2013-06-09 07:08:00,
2013-06-09 03:13:00,70.9,67.5,30.04,SE,144,0.0,0.0,89,0.00,,,0.00,WUHU216DAVISVP2,2013-06-09 07:13:00,
2013-06-09 03:18:00,70.6,67.2,30.05,SE,144,0.0,0.0,89,0.00,,,0.00,WUHU216DAVISVP2,2013-06-09 07:18:00,
2013-06-09 03:23:00,70.6,67.2,30.05,SE,144,0.0,0.0,89,0.00,,,0.00,WUHU216DAVISVP2,2013-06-09 07:23:00,
2013-06-09 03:28:00,70.6,67.2,30.05,SE,144,0.0,0.0,89,0.00,,,0.00,WUHU216DAVISVP2,2013-06-09 07:28:00,
2013-06-09 03:33:00,70.8,67.4,30.05,SE,144,0.0,0.0,89,0.00,,,0.00,WUHU216DAVISVP2,2013-06-09 07:33:00,
2013-06-09 03:38:00,70.6,67.2,30.05,SE,144,0.0,0.0,89,0.00,,,0.00,WUHU216DAVISVP2,2013-06-09 07:38:00,
2013-06-09 03:43:00,70.6,67.2,30.05,SE,144,0.0,0.0,89,0.00,,,0.00,WUHU216DAVISVP2,2013-06-09 07:43:00,
2013-06-09 03:51:00,70.8,67.7,30.05,SE,144,0.0,0.0,90,0.00,,,0.00,WUHU216DAVISVP2,2013-06-09 07:51:00,
2013-06-09 03:56:00,70.6,67.5,30.05,SE,144,0.0,0.0,90,0.00,,,0.00,WUHU216DAVISVP2,2013-06-09 07:56:00,
2013-06-09 04:04:00,70.6,67.5,30.05,SE,144,0.0,0.0,90,0.00,,,0.00,WUHU216DAVISVP2,2013-06-09 08:04:00,
2013-06-09 04:09:00,70.8,67.7,30.05,SE,144,0.0,0.0,90,0.00,,,0.00,WUHU216DAVISVP2,2013-06-09 08:09:00,
2013-06-09 04:17:00,70.8,67.7,30.05,SE,144,0.0,0.0,90,0.00,,,0.00,WUHU216DAVISVP2,2013-06-09 08:17:00,
2013-06-09 04:22:00,70.8,67.7,30.05,SE,144,0.0,0.0,90,0.00,,,0.00,WUHU216DAVISVP2,2013-06-09 08:22:00,
2013-06-09 04:27:00,71.3,68.2,30.05,SE,144,0.0,0.0,90,0.00,,,0.00,WUHU216DAVISVP2,2013-06-09 08:27:00,
2013-06-09 04:32:00,71.5,68.4,30.05,SE,144,0.0,0.0,90,0.00,,,0.00,WUHU216DAVISVP2,2013-06-09 08:32:00,
2013-06-09 04:37:00,71.1,68.0,30.05,SE,144,0.0,0.0,90,0.00,,,0.00,WUHU216DAVISVP2,2013-06-09 08:37:00,
2013-06-09 04:42:00,71.3,68.2,30.05,SE,144,0.0,0.0,90,0.00,,,0.00,WUHU216DAVISVP2,2013-06-09 08:42:00,
2013-06-09 04:47:00,71.3,68.2,30.05,SE,144,0.0,0.0,90,0.00,,,0.00,WUHU216DAVISVP2,2013-06-09 08:47:00,
2013-06-09 04:52:00,71.5,68.4,30.05,SE,144,0.0,0.0,90,0.00,,,0.00,WUHU216DAVISVP2,2013-06-09 08:52:00,
2013-06-09 04:57:00,71.5,68.4,30.05,SE,144,0.0,0.0,90,0.00,,,0.00,WUHU216DAVISVP2,2013-06-09 08:57:00,
2013-06-09 05:02:00,71.6,68.5,30.06,SE,144,0.0,0.0,90,0.00,,,0.00,WUHU216DAVISVP2,2013-06-09 09:02:00,
2013-06-09 05:07:00,71.5,68.4,30.06,SE,144,0.0,0.0,90,0.00,,,0.00,WUHU216DAVISVP2,2013-06-09 09:07:00,
2013-06-09 05:12:00,71.5,68.4,30.06,SE,144,0.0,0.0,90,0.00,,,0.00,WUHU216DAVISVP2,2013-06-09 09:12:00,
2013-06-09 05:17:00,72.0,68.9,30.06,SE,144,0.0,0.0,90,0.00,,,0.00,WUHU216DAVISVP2,2013-06-09 09:17:00,
2013-06-09 05:22:00,71.5,68.4,30.06,SE,144,0.0,0.0,90,0.00,,,0.00,WUHU216DAVISVP2,2013-06-09 09:22:00,
2013-06-09 05:27:00,71.6,68.5,30.06,SE,144,0.0,0.0,90,0.00,,,0.00,WUHU216DAVISVP2,2013-06-09 09:27:00,
2013-06-09 05:32:00,71.6,68.5,30.07,SE,144,0.0,0.0,90,0.00,,,0.00,WUHU216DAVISVP2,2013-06-09 09:32:00,
2013-06-09 05:37:00,71.8,68.7,30.07,SE,144,0.0,0.0,90,0.00,,,0.00,WUHU216DAVISVP2,2013-06-09 09:37:00,
2013-06-09 05:42:00,72.3,69.2,30.07,SE,144,0.0,0.0,90,0.00,,,0.00,WUHU216DAVISVP2,2013-06-09 09:42:00,
2013-06-09 05:47:00,72.0,68.9,30.07,SE,144,0.0,0.0,90,0.00,,,0.00,WUHU216DAVISVP2,2013-06-09 09:47:00,
2013-06-09 05:52:00,71.8,68.7,30.07,SE,144,0.0,0.0,90,0.00,,,0.00,WUHU216DAVISVP2,2013-06-09 09:52:00,
2013-06-09 05:57:00,72.0,68.9,30.07,SE,144,0.0,0.0,90,0.00,,,0.00,WUHU216DAVISVP2,2013-06-09 09:57:00,
2013-06-09 06:02:00,72.0,68.9,30.08,SE,144,0.0,0.0,90,0.00,,,0.00,WUHU216DAVISVP2,2013-06-09 10:02:00,
2013-06-09 06:07:00,72.0,68.9,30.08,SE,144,0.0,0.0,90,0.00,,,0.00,WUHU216DAVISVP2,2013-06-09 10:07:00,
2013-06-09 06:12:00,72.0,68.9,30.08,SE,144,0.0,0.0,90,0.00,,,0.00,WUHU216DAVISVP2,2013-06-09 10:12:00,
2013-06-09 06:17:00,72.5,69.4,30.08,SE,144,0.0,0.0,90,0.00,,,0.00,WUHU216DAVISVP2,2013-06-09 10:17:00,
2013-06-09 06:22:00,72.5,69.4,30.08,SE,144,0.0,0.0,90,0.00,,,0.00,WUHU216DAVISVP2,2013-06-09 10:22:00,
2013-06-09 06:27:00,73.2,70.1,30.08,SE,144,0.0,0.0,90,0.00,,,0.00,WUHU216DAVISVP2,2013-06-09 10:27:00,
2013-06-09 06:32:00,72.8,69.7,30.09,SE,144,0.0,0.0,90,0.00,,,0.00,WUHU216DAVISVP2,2013-06-09 10:32:00,
2013-06-09 06:37:00,73.3,70.2,30.09,SE,144,0.0,0.0,90,0.00,,,0.00,WUHU216DAVISVP2,2013-06-09 10:37:00,
2013-06-09 06:42:00,73.0,69.9,30.09,SE,144,0.0,0.0,90,0.00,,,0.00,WUHU216DAVISVP2,2013-06-09 10:42:00,
2013-06-09 06:47:00,73.0,69.9,30.09,SE,144,0.0,0.0,90,0.00,,,0.00,WUHU216DAVISVP2,2013-06-09 10:47:00,
2013-06-09 06:52:00,73.3,70.2,30.09,SE,144,0.0,0.0,90,0.00,,,0.00,WUHU216DAVISVP2,2013-06-09 10:52:00,
2013-06-09 06:57:00,74.0,70.9,30.09,SE,144,0.0,0.0,90,0.00,,,0.00,WUHU216DAVISVP2,2013-06-09 10:57:00,
2013-06-09 07:02:00,73.7,70.6,30.09,SE,144,0.0,0.0,90,0.00,,,0.00,WUHU216DAVISVP2,2013-06-09 11:02:00,
2013-06-09 07:07:00,73.9,70.8,30.09,SE,144,0.0,0.0,90,0.00,,,0.00,WUHU216DAVISVP2,2013-06-09 11:07:00,
2013-06-09 07:12:00,74.7,71.6,30.09,SE,144,0.0,0.0,90,0.00,,,0.00,WUHU216DAVISVP2,2013-06-09 11:12:00,
2013-06-09 07:17:00,74.7,71.6,30.09,SE,144,0.0,0.0,90,0.00,,,0.00,WUHU216DAVISVP2,2013-06-09 11:17:00,
2013-06-09 07:22:00,74.4,71.3,30.09,SE,144,0.0,0.0,90,0.00,,,0.00,WUHU216DAVISVP2,2013-06-09 11:22:00,
2013-06-09 07:27:00,74.7,71.6,30.09,SE,144,0.0,0.0,90,0.00,,,0.00,WUHU216DAVISVP2,2013-06-09 11:27:00,
2013-06-09 07:32:00,74.7,71.6,30.09,SE,144,0.0,0.0,90,0.00,,,0.00,WUHU216DAVISVP2,2013-06-09 11:32:00,
2013-06-09 07:37:00,74.9,71.8,30.09,SE,144,0.0,0.0,90,0.00,,,0.00,WUHU216DAVISVP2,2013-06-09 11:37:00,
2013-06-09 07:43:00,74.9,71.8,30.09,SE,144,0.0,0.0,90,0.00,,,0.00,WUHU216DAVISVP2,2013-06-09 11:43:00,
2013-06-09 07:48:00,75.3,72.2,30.10,SE,144,0.0,0.0,90,0.00,,,0.00,WUHU216DAVISVP2,2013-06-09 11:48:00,
2013-06-09 07:54:00,75.3,72.2,30.10,West,263,0.0,0.0,90,0.00,,,0.00,WUHU216DAVISVP2,2013-06-09 11:54:00,
2013-06-09 07:59:00,75.4,72.3,30.11,West,263,0.0,0.0,90,0.00,,,0.00,WUHU216DAVISVP2,2013-06-09 11:59:00,
2013-06-09 08:04:00,75.6,72.4,30.11,West,263,0.0,0.0,90,0.00,,,0.00,WUHU216DAVISVP2,2013-06-09 12:04:00,
2013-06-09 08:09:00,75.8,72.6,30.11,West,263,0.0,0.0,90,0.00,,,0.00,WUHU216DAVISVP2,2013-06-09 12:09:00,
2013-06-09 08:14:00,76.0,72.8,30.11,West,263,0.0,0.0,90,0.00,,,0.00,WUHU216DAVISVP2,2013-06-09 12:14:00,
2013-06-09 08:19:00,75.6,72.4,30.11,West,263,0.0,0.0,90,0.00,,,0.00,WUHU216DAVISVP2,2013-06-09 12:19:00,
2013-06-09 08:24:00,75.4,72.3,30.11,West,263,0.0,0.0,90,0.00,,,0.00,WUHU216DAVISVP2,2013-06-09 12:24:00,
2013-06-09 08:29:00,75.4,72.3,30.11,West,263,0.0,0.0,90,0.00,,,0.00,WUHU216DAVISVP2,2013-06-09 12:29:00,
2013-06-09 08:34:00,75.6,72.4,30.11,West,263,0.0,0.0,90,0.00,,,0.00,WUHU216DAVISVP2,2013-06-09 12:34:00,
2013-06-09 08:39:00,75.6,72.4,30.11,West,263,0.0,0.0,90,0.00,,,0.00,WUHU216DAVISVP2,2013-06-09 12:39:00,
2013-06-09 08:44:00,75.4,72.3,30.11,West,263,0.0,0.0,90,0.00,,,0.00,WUHU216DAVISVP2,2013-06-09 12:44:00,
2013-06-09 08:49:00,75.4,71.9,30.11,West,263,0.0,0.0,89,0.00,,,0.00,WUHU216DAVISVP2,2013-06-09 12:49:00,
2013-06-09 08:54:00,75.6,72.1,30.11,West,263,0.0,0.0,89,0.00,,,0.00,WUHU216DAVISVP2,2013-06-09 12:54:00,
2013-06-09 08:59:00,75.8,72.3,30.12,West,263,0.0,0.0,89,0.00,,,0.00,WUHU216DAVISVP2,2013-06-09 12:59:00,
2013-06-09 09:04:00,76.0,72.5,30.12,West,263,0.0,0.0,89,0.00,,,0.00,WUHU216DAVISVP2,2013-06-09 13:04:00,
2013-06-09 09:09:00,76.1,72.3,30.12,WSW,244,0.0,0.0,88,0.00,,,0.00,WUHU216DAVISVP2,2013-06-09 13:09:00,
2013-06-09 09:14:00,76.5,72.7,30.12,WSW,244,0.0,0.0,88,0.00,,,0.00,WUHU216DAVISVP2,2013-06-09 13:14:00,
2013-06-09 09:19:00,76.8,73.0,30.12,WSW,244,0.0,0.0,88,0.00,,,0.00,WUHU216DAVISVP2,2013-06-09 13:19:00,
2013-06-09 09:24:00,77.0,73.2,30.12,WSW,244,0.0,0.0,88,0.00,,,0.00,WUHU216DAVISVP2,2013-06-09 13:24:00,
2013-06-09 09:29:00,77.7,73.5,30.12,WSW,244,0.0,0.0,87,0.00,,,0.00,WUHU216DAVISVP2,2013-06-09 13:29:00,
2013-06-09 09:34:00,78.3,73.8,30.12,SW,215,0.0,0.0,86,0.00,,,0.00,WUHU216DAVISVP2,2013-06-09 13:34:00,
2013-06-09 09:39:00,78.8,74.3,30.12,SW,215,0.0,0.0,86,0.00,,,0.00,WUHU216DAVISVP2,2013-06-09 13:39:00,
2013-06-09 09:44:00,79.4,74.5,30.11,SW,215,0.0,0.0,85,0.00,,,0.00,WUHU216DAVISVP2,2013-06-09 13:44:00,
2013-06-09 09:49:00,79.9,74.7,30.11,SSW,209,0.0,0.0,84,0.00,,,0.00,WUHU216DAVISVP2,2013-06-09 13:49:00,
2013-06-09 09:54:00,79.9,74.3,30.11,ESE,119,0.0,0.0,83,0.00,,,0.00,WUHU216DAVISVP2,2013-06-09 13:54:00,
2013-06-09 09:59:00,80.3,74.7,30.11,ESE,119,0.0,0.0,83,0.00,,,0.00,WUHU216DAVISVP2,2013-06-09 13:59:00,
2013-06-09 10:04:00,80.7,75.1,30.11,NE,56,0.0,0.0,83,0.00,,,0.00,WUHU216DAVISVP2,2013-06-09 14:04:00,
2013-06-09 10:09:00,81.1,75.2,30.11,NE,56,0.0,0.0,82,0.00,,,0.00,WUHU216DAVISVP2,2013-06-09 14:09:00,
2013-06-09 10:14:00,81.4,74.8,30.10,NE,56,0.0,0.0,80,0.00,,,0.00,WUHU216DAVISVP2,2013-06-09 14:14:00,
2013-06-09 10:20:00,81.8,75.1,30.10,NE,38,0.0,0.0,80,0.00,,,0.00,WUHU216DAVISVP2,2013-06-09 14:20:00,
2013-06-09 10:25:00,82.2,75.5,30.10,NE,38,0.0,0.0,80,0.00,,,0.00,WUHU216DAVISVP2,2013-06-09 14:25:00,
2013-06-09 10:30:00,82.4,75.7,30.10,NNE,28,0.0,0.0,80,0.00,,,0.00,WUHU216DAVISVP2,2013-06-09 14:30:00,
2013-06-09 10:35:00,82.6,75.6,30.10,NNE,28,0.0,0.0,79,0.00,,,0.00,WUHU216DAVISVP2,2013-06-09 14:35:00,
2013-06-09 10:40:00,82.8,75.8,30.10,NNE,28,0.0,0.0,79,0.00,,,0.00,WUHU216DAVISVP2,2013-06-09 14:40:00,
2013-06-09 10:45:00,83.2,75.4,30.10,NNE,28,0.0,0.0,77,0.00,,,0.00,WUHU216DAVISVP2,2013-06-09 14:45:00,
2013-06-09 10:50:00,83.8,76.0,30.10,NNE,28,0.0,0.0,77,0.00,,,0.00,WUHU216DAVISVP2,2013-06-09 14:50:00,
2013-06-09 10:55:00,84.1,75.9,30.10,NNE,28,0.0,0.0,76,0.00,,,0.00,WUHU216DAVISVP2,2013-06-09 14:55:00,
2013-06-09 11:00:00,84.3,76.1,30.10,NE,45,0.0,0.0,76,0.00,,,0.00,WUHU216DAVISVP2,2013-06-09 15:00:00,
2013-06-09 11:05:00,84.3,75.3,30.10,ENE,59,0.0,0.0,74,0.00,,,0.00,WUHU216DAVISVP2,2013-06-09 15:05:00,
2013-06-09 11:10:00,84.0,75.0,30.10,NE,54,0.0,0.0,74,0.00,,,0.00,WUHU216DAVISVP2,2013-06-09 15:10:00,
2013-06-09 11:15:00,84.1,75.1,30.10,NE,54,0.0,0.0,74,0.00,,,0.00,WUHU216DAVISVP2,2013-06-09 15:15:00,
2013-06-09 11:20:00,84.1,74.3,30.10,NE,54,0.0,0.0,72,0.00,,,0.00,WUHU216DAVISVP2,2013-06-09 15:20:00,
2013-06-09 11:25:00,84.1,75.1,30.10,NE,54,0.0,0.0,74,0.00,,,0.00,WUHU216DAVISVP2,2013-06-09 15:25:00,
2013-06-09 11:30:00,84.5,75.5,30.10,NE,54,0.0,0.0,74,0.00,,,0.00,WUHU216DAVISVP2,2013-06-09 15:30:00,
2013-06-09 11:35:00,84.7,74.9,30.10,ENE,75,0.0,0.0,72,0.00,,,0.00,WUHU216DAVISVP2,2013-06-09 15:35:00,
2013-06-09 11:40:00,85.1,74.9,30.10,ENE,75,0.0,0.0,71,0.00,,,0.00,WUHU216DAVISVP2,2013-06-09 15:40:00,
2013-06-09 11:45:00,85.3,75.1,30.09,ENE,69,0.0,0.0,71,0.00,,,0.00,WUHU216DAVISVP2,2013-06-09 15:45:00,
2013-06-09 11:50:00,85.3,74.7,30.09,East,86,0.0,0.0,70,0.00,,,0.00,WUHU216DAVISVP2,2013-06-09 15:50:00,
2013-06-09 11:55:00,85.5,74.0,30.09,East,82,0.0,0.0,68,0.00,,,0.00,WUHU216DAVISVP2,2013-06-09 15:55:00,
2013-06-09 12:00:00,85.7,75.0,30.09,ENE,71,0.0,0.0,70,0.00,,,0.00,WUHU216DAVISVP2,2013-06-09 16:00:00,
2013-06-09 12:05:00,85.7,75.0,30.09,ENE,71,0.0,0.0,70,0.00,,,0.00,WUHU216DAVISVP2,2013-06-09 16:05:00,
2013-06-09 12:10:00,85.7,74.6,30.09,ENE,71,0.0,0.0,69,0.00,,,0.00,WUHU216DAVISVP2,2013-06-09 16:10:00,
2013-06-09 12:15:00,85.9,75.2,30.10,ENE,71,0.0,0.0,70,0.00,,,0.00,WUHU216DAVISVP2,2013-06-09 16:15:00,
2013-06-09 12:20:00,86.1,75.4,30.10,ENE,71,0.0,0.0,70,0.00,,,0.00,WUHU216DAVISVP2,2013-06-09 16:20:00,
2013-06-09 12:25:00,86.1,74.3,30.10,ENE,71,0.0,0.0,68,0.00,,,0.00,WUHU216DAVISVP2,2013-06-09 16:25:00,
2013-06-09 12:30:00,86.3,75.4,30.09,ENE,71,0.0,0.0,70,0.00,,,0.00,WUHU216DAVISVP2,2013-06-09 16:30:00,
2013-06-09 12:35:00,86.5,75.8,30.09,ENE,62,0.0,0.0,70,0.00,,,0.00,WUHU216DAVISVP2,2013-06-09 16:35:00,
2013-06-09 12:40:00,86.5,74.5,30.09,ENE,62,0.0,0.0,67,0.00,,,0.00,WUHU216DAVISVP2,2013-06-09 16:40:00,
2013-06-09 12:45:00,86.7,75.1,30.09,SW,227,0.0,0.0,68,0.00,,,0.00,WUHU216DAVISVP2,2013-06-09 16:45:00,
2013-06-09 12:50:00,87.2,76.1,30.09,SW,227,0.0,0.0,69,0.00,,,0.00,WUHU216DAVISVP2,2013-06-09 16:50:00,
2013-06-09 12:55:00,87.4,74.9,30.09,North,8,0.0,0.0,66,0.00,,,0.00,WUHU216DAVISVP2,2013-06-09 16:55:00,
2013-06-09 13:00:00,87.2,73.1,30.08,ENE,58,0.0,0.0,63,0.00,,,0.00,WUHU216DAVISVP2,2013-06-09 17:00:00,
2013-06-09 13:05:00,87.2,73.1,30.08,NW,326,0.0,0.0,63,0.00,,,0.00,WUHU216DAVISVP2,2013-06-09 17:05:00,
2013-06-09 13:10:00,87.2,74.5,30.08,NW,326,0.0,0.0,66,0.00,,,0.00,WUHU216DAVISVP2,2013-06-09 17:10:00,
2013-06-09 13:15:00,87.0,75.0,30.08,NW,326,0.0,0.0,67,0.00,,,0.00,WUHU216DAVISVP2,2013-06-09 17:15:00,
2013-06-09 13:20:00,86.5,74.5,30.08,NW,326,0.0,0.0,67,0.00,,,0.00,WUHU216DAVISVP2,2013-06-09 17:20:00,
2013-06-09 13:25:00,86.5,74.5,30.08,NW,325,0.0,0.0,67,0.00,,,0.00,WUHU216DAVISVP2,2013-06-09 17:25:00,
2013-06-09 13:30:00,86.5,72.7,30.07,North,0,0.0,0.0,63,0.00,,,0.00,WUHU216DAVISVP2,2013-06-09 17:30:00,
2013-06-09 13:35:00,86.3,74.3,30.07,East,90,0.0,0.0,67,0.00,,,0.00,WUHU216DAVISVP2,2013-06-09 17:35:00,
2013-06-09 13:40:00,86.1,74.6,30.07,East,90,0.0,0.0,68,0.00,,,0.00,WUHU216DAVISVP2,2013-06-09 17:40:00,
2013-06-09 13:45:00,86.1,73.9,30.06,South,185,0.0,0.0,67,0.00,,,0.00,WUHU216DAVISVP2,2013-06-09 17:45:00,
2013-06-09 13:50:00,86.3,73.6,30.06,South,185,0.0,0.0,66,0.00,,,0.00,WUHU216DAVISVP2,2013-06-09 17:50:00,
2013-06-09 13:55:00,86.5,74.1,30.06,SSW,192,0.0,0.0,66,0.00,,,0.00,WUHU216DAVISVP2,2013-06-09 17:55:00,
2013-06-09 14:00:00,86.3,73.4,30.05,SSW,192,0.0,0.0,65,0.00,,,0.00,WUHU216DAVISVP2,2013-06-09 18:00:00,
2013-06-09 14:06:00,86.1,74.6,30.05,SSW,192,0.0,0.0,68,0.00,,,0.00,WUHU216DAVISVP2,2013-06-09 18:06:00,
2013-06-09 14:11:00,85.9,75.2,30.05,SSW,192,0.0,0.0,70,0.00,,,0.00,WUHU216DAVISVP2,2013-06-09 18:11:00,
2013-06-09 14:17:00,85.9,75.2,30.05,SSW,192,0.0,0.0,70,0.00,,,0.00,WUHU216DAVISVP2,2013-06-09 18:17:00,
2013-06-09 14:22:00,85.9,73.5,30.05,SSE,148,0.0,0.0,66,0.00,,,0.00,WUHU216DAVISVP2,2013-06-09 18:22:00,
2013-06-09 14:27:00,86.5,74.1,30.05,SSW,192,0.0,0.0,66,0.00,,,0.00,WUHU216DAVISVP2,2013-06-09 18:27:00,
2013-06-09 14:32:00,86.7,74.3,30.05,SSW,192,0.0,0.0,66,0.00,,,0.00,WUHU216DAVISVP2,2013-06-09 18:32:00,
2013-06-09 14:37:00,87.2,74.3,30.05,SSW,192,0.0,0.0,65,0.00,,,0.00,WUHU216DAVISVP2,2013-06-09 18:37:00,
2013-06-09 14:42:00,87.4,73.5,30.05,SW,234,0.0,0.0,63,0.00,,,0.00,WUHU216DAVISVP2,2013-06-09 18:42:00,
2013-06-09 14:47:00,87.6,73.9,30.05,West,263,0.0,0.0,64,0.00,,,0.00,WUHU216DAVISVP2,2013-06-09 18:47:00,
2013-06-09 14:52:00,87.8,75.5,30.05,West,263,0.0,0.0,67,0.00,,,0.00,WUHU216DAVISVP2,2013-06-09 18:52:00,
2013-06-09 14:57:00,87.6,74.4,30.05,West,264,0.0,0.0,65,0.00,,,0.00,WUHU216DAVISVP2,2013-06-09 18:57:00,
2013-06-09 15:02:00,87.6,74.7,30.04,WSW,251,0.0,0.0,65,0.00,,,0.00,WUHU216DAVISVP2,2013-06-09 19:02:00,
2013-06-09 15:07:00,87.6,75.6,30.04,WSW,251,0.0,0.0,67,0.00,,,0.00,WUHU216DAVISVP2,2013-06-09 19:07:00,
2013-06-09 15:12:00,87.4,76.2,30.04,WSW,251,0.0,0.0,69,0.00,,,0.00,WUHU216DAVISVP2,2013-06-09 19:12:00,
2013-06-09 15:17:00,87.4,75.4,30.04,WSW,251,0.0,0.0,67,0.00,,,0.00,WUHU216DAVISVP2,2013-06-09 19:17:00,
2013-06-09 15:22:00,87.2,75.2,30.04,WSW,250,0.0,0.0,67,0.00,,,0.00,WUHU216DAVISVP2,2013-06-09 19:22:00,
2013-06-09 15:27:00,87.2,74.7,30.04,WSW,251,0.0,0.0,66,0.00,,,0.00,WUHU216DAVISVP2,2013-06-09 19:27:00,
2013-06-09 15:32:00,87.4,74.6,30.03,West,274,0.0,0.0,66,0.00,,,0.00,WUHU216DAVISVP2,2013-06-09 19:32:00,
2013-06-09 15:37:00,87.6,74.8,30.03,West,274,0.0,0.0,66,0.00,,,0.00,WUHU216DAVISVP2,2013-06-09 19:37:00,
2013-06-09 15:42:00,87.6,75.1,30.03,SE,143,0.0,0.0,66,0.00,,,0.00,WUHU216DAVISVP2,2013-06-09 19:42:00,
2013-06-09 15:47:00,87.8,75.8,30.02,SE,141,0.0,0.0,67,0.00,,,0.00,WUHU216DAVISVP2,2013-06-09 19:47:00,
2013-06-09 15:52:00,87.8,75.3,30.02,East,85,0.0,0.0,66,0.00,,,0.00,WUHU216DAVISVP2,2013-06-09 19:52:00,
2013-06-09 15:57:00,87.8,74.9,30.02,WSW,237,0.0,0.0,65,0.00,,,0.00,WUHU216DAVISVP2,2013-06-09 19:57:00,
2013-06-09 16:02:00,88.0,75.5,30.01,SW,234,0.0,0.0,66,0.00,,,0.00,WUHU216DAVISVP2,2013-06-09 20:02:00,
2013-06-09 16:07:00,88.0,74.8,30.01,SW,234,0.0,0.0,65,0.00,,,0.00,WUHU216DAVISVP2,2013-06-09 20:07:00,
2013-06-09 16:12:00,88.0,75.5,30.01,WSW,239,0.0,0.0,66,0.00,,,0.00,WUHU216DAVISVP2,2013-06-09 20:12:00,
2013-06-09 16:17:00,87.8,75.3,30.01,WSW,244,0.0,0.0,66,0.00,,,0.00,WUHU216DAVISVP2,2013-06-09 20:17:00,
2013-06-09 16:22:00,87.2,74.7,30.01,South,185,0.0,0.0,66,0.00,,,0.00,WUHU216DAVISVP2,2013-06-09 20:22:00,
2013-06-09 16:27:00,86.3,74.3,30.01,South,186,0.0,0.0,67,0.00,,,0.00,WUHU216DAVISVP2,2013-06-09 20:27:00,
2013-06-09 16:32:00,85.9,73.9,30.01,South,186,0.0,0.0,67,0.00,,,0.00,WUHU216DAVISVP2,2013-06-09 20:32:00,
2013-06-09 16:37:00,85.7,74.2,30.01,South,186,0.0,0.0,68,0.00,,,0.00,WUHU216DAVISVP2,2013-06-09 20:37:00,
2013-06-09 16:42:00,85.7,74.6,30.01,South,186,0.0,0.0,69,0.00,,,0.00,WUHU216DAVISVP2,2013-06-09 20:42:00,
2013-06-09 16:47:00,85.5,73.6,30.01,SSW,192,0.0,0.0,67,0.00,,,0.00,WUHU216DAVISVP2,2013-06-09 20:47:00,
2013-06-09 16:52:00,85.3,73.8,30.01,SSW,192,0.0,0.0,68,0.00,,,0.00,WUHU216DAVISVP2,2013-06-09 20:52:00,
2013-06-09 16:57:00,85.3,73.8,30.01,SSW,192,0.0,0.0,68,0.00,,,0.00,WUHU216DAVISVP2,2013-06-09 20:57:00,
2013-06-09 17:02:00,85.3,74.2,30.01,SSW,192,0.0,0.0,69,0.00,,,0.00,WUHU216DAVISVP2,2013-06-09 21:02:00,
2013-06-09 17:07:00,85.3,74.7,30.01,SSW,192,0.0,0.0,70,0.00,,,0.00,WUHU216DAVISVP2,2013-06-09 21:07:00,
2013-06-09 17:12:00,85.5,74.6,30.01,SSW,192,0.0,0.0,70,0.00,,,0.00,WUHU216DAVISVP2,2013-06-09 21:12:00,
2013-06-09 17:17:00,85.9,75.2,30.01,SSW,192,0.0,0.0,70,0.00,,,0.00,WUHU216DAVISVP2,2013-06-09 21:17:00,
2013-06-09 17:22:00,86.3,75.2,30.01,South,185,0.0,0.0,69,0.00,,,0.00,WUHU216DAVISVP2,2013-06-09 21:22:00,
2013-06-09 17:27:00,86.5,75.4,30.01,SW,233,0.0,0.0,69,0.00,,,0.00,WUHU216DAVISVP2,2013-06-09 21:27:00,
2013-06-09 17:32:00,86.3,75.6,30.01,SW,233,0.0,0.0,70,0.00,,,0.00,WUHU216DAVISVP2,2013-06-09 21:32:00,
2013-06-09 17:37:00,85.9,74.8,30.01,SW,230,0.0,0.0,69,0.00,,,0.00,WUHU216DAVISVP2,2013-06-09 21:37:00,
2013-06-09 17:42:00,85.7,75.0,30.01,SW,230,0.0,0.0,70,0.00,,,0.00,WUHU216DAVISVP2,2013-06-09 21:42:00,
2013-06-09 17:47:00,85.3,74.7,30.01,SW,230,0.0,0.0,70,0.00,,,0.00,WUHU216DAVISVP2,2013-06-09 21:47:00,
2013-06-09 17:52:00,84.7,74.1,30.01,SW,230,0.0,0.0,70,0.00,,,0.00,WUHU216DAVISVP2,2013-06-09 21:52:00,
2013-06-09 17:57:00,84.1,73.3,30.01,SW,230,0.0,0.0,70,0.00,,,0.00,WUHU216DAVISVP2,2013-06-09 21:57:00,
2013-06-09 18:02:00,84.0,73.6,30.02,SW,230,0.0,0.0,71,0.00,,,0.00,WUHU216DAVISVP2,2013-06-09 22:02:00,
2013-06-09 18:07:00,83.6,73.8,30.02,SW,230,0.0,0.0,72,0.00,,,0.00,WUHU216DAVISVP2,2013-06-09 22:07:00,
2013-06-09 18:12:00,83.4,73.6,30.02,SW,230,0.0,0.0,72,0.00,,,0.00,WUHU216DAVISVP2,2013-06-09 22:12:00,
2013-06-09 18:17:00,83.2,73.9,30.01,SW,230,0.0,0.0,73,0.00,,,0.00,WUHU216DAVISVP2,2013-06-09 22:17:00,
2013-06-09 18:23:00,83.0,73.4,30.01,SW,230,0.0,0.0,73,0.00,,,0.00,WUHU216DAVISVP2,2013-06-09 22:23:00,
2013-06-09 18:28:00,82.8,73.9,30.02,SW,230,0.0,0.0,74,0.00,,,0.00,WUHU216DAVISVP2,2013-06-09 22:28:00,
2013-06-09 18:33:00,82.6,73.5,30.02,SW,230,0.0,0.0,74,0.00,,,0.00,WUHU216DAVISVP2,2013-06-09 22:33:00,
2013-06-09 18:38:00,82.2,73.5,30.02,SW,230,0.0,0.0,75,0.00,,,0.00,WUHU216DAVISVP2,2013-06-09 22:38:00,
2013-06-09 18:45:00,81.8,73.1,30.03,SW,230,0.0,0.0,75,0.00,,,0.00,WUHU216DAVISVP2,2013-06-09 22:45:00,
2013-06-09 18:50:00,81.6,73.5,30.03,SW,230,0.0,0.0,76,0.00,,,0.00,WUHU216DAVISVP2,2013-06-09 22:50:00,
2013-06-09 18:55:00,81.4,73.3,30.03,SW,230,0.0,0.0,76,0.00,,,0.00,WUHU216DAVISVP2,2013-06-09 22:55:00,
2013-06-09 19:01:00,81.1,73.0,30.03,SW,230,0.0,0.0,76,0.00,,,0.00,WUHU216DAVISVP2,2013-06-09 23:01:00,
2013-06-09 19:06:00,80.9,73.2,30.03,SW,230,0.0,0.0,77,0.00,,,0.00,WUHU216DAVISVP2,2013-06-09 23:06:00,
2013-06-09 19:11:00,80.7,73.0,30.03,SW,230,0.0,0.0,77,0.00,,,0.00,WUHU216DAVISVP2,2013-06-09 23:11:00,
2013-06-09 19:16:00,80.3,72.6,30.03,South,188,0.0,0.0,77,0.00,,,0.00,WUHU216DAVISVP2,2013-06-09 23:16:00,
2013-06-09 19:21:00,80.1,72.4,30.03,South,188,0.0,0.0,77,0.00,,,0.00,WUHU216DAVISVP2,2013-06-09 23:21:00,
2013-06-09 19:26:00,80.1,72.6,30.03,South,188,0.0,0.0,78,0.00,,,0.00,WUHU216DAVISVP2,2013-06-09 23:26:00,
2013-06-09 19:31:00,79.9,72.6,30.02,South,188,0.0,0.0,78,0.00,,,0.00,WUHU216DAVISVP2,2013-06-09 23:31:00,
2013-06-09 19:36:00,79.8,72.5,30.02,South,188,0.0,0.0,78,0.00,,,0.00,WUHU216DAVISVP2,2013-06-09 23:36:00,
2013-06-09 19:41:00,79.8,72.7,30.02,West,270,0.0,0.0,79,0.00,,,0.00,WUHU216DAVISVP2,2013-06-09 23:41:00,
2013-06-09 19:46:00,79.6,72.6,30.02,West,270,0.0,0.0,79,0.00,,,0.00,WUHU216DAVISVP2,2013-06-09 23:46:00,
2013-06-09 19:51:00,79.4,72.4,30.02,West,270,0.0,0.0,79,0.00,,,0.00,WUHU216DAVISVP2,2013-06-09 23:51:00,
2013-06-09 19:56:00,79.2,72.1,30.02,West,270,0.0,0.0,79,0.00,,,0.00,WUHU216DAVISVP2,2013-06-09 23:56:00,
2013-06-09 20:01:00,79.0,71.9,30.03,West,270,0.0,0.0,79,0.00,,,0.00,WUHU216DAVISVP2,2013-06-10 00:01:00,
2013-06-09 20:06:00,78.8,72.2,30.03,West,270,0.0,0.0,80,0.00,,,0.00,WUHU216DAVISVP2,2013-06-10 00:06:00,
2013-06-09 20:12:00,78.6,72.0,30.03,West,270,0.0,0.0,80,0.00,,,0.00,WUHU216DAVISVP2,2013-06-10 00:12:00,
2013-06-09 20:17:00,78.5,71.9,30.03,West,270,0.0,0.0,80,0.00,,,0.00,WUHU216DAVISVP2,2013-06-10 00:17:00,
2013-06-09 20:22:00,78.5,71.9,30.03,West,270,0.0,0.0,80,0.00,,,0.00,WUHU216DAVISVP2,2013-06-10 00:22:00,
2013-06-09 20:27:00,78.3,71.7,30.03,West,270,0.0,0.0,80,0.00,,,0.00,WUHU216DAVISVP2,2013-06-10 00:27:00,
2013-06-09 20:32:00,78.3,71.7,30.02,West,270,0.0,0.0,80,0.00,,,0.00,WUHU216DAVISVP2,2013-06-10 00:32:00,
2013-06-09 20:37:00,78.1,71.9,30.02,West,270,0.0,0.0,81,0.00,,,0.00,WUHU216DAVISVP2,2013-06-10 00:37:00,
2013-06-09 20:42:00,77.9,71.7,30.02,West,270,0.0,0.0,81,0.00,,,0.00,WUHU216DAVISVP2,2013-06-10 00:42:00,
2013-06-09 20:47:00,77.7,71.5,30.03,West,270,0.0,0.0,81,0.00,,,0.00,WUHU216DAVISVP2,2013-06-10 00:47:00,
2013-06-09 20:52:00,77.7,71.8,30.03,West,270,0.0,0.0,82,0.00,,,0.00,WUHU216DAVISVP2,2013-06-10 00:52:00,
2013-06-09 20:57:00,77.7,71.8,30.03,West,270,0.0,0.0,82,0.00,,,0.00,WUHU216DAVISVP2,2013-06-10 00:57:00,
2013-06-09 21:02:00,77.7,71.8,30.03,West,270,0.0,0.0,82,0.00,,,0.00,WUHU216DAVISVP2,2013-06-10 01:02:00,
2013-06-09 21:07:00,77.7,72.2,30.03,West,270,0.0,0.0,83,0.00,,,0.00,WUHU216DAVISVP2,2013-06-10 01:07:00,
2013-06-09 21:12:00,77.7,72.2,30.03,West,270,0.0,0.0,83,0.00,,,0.00,WUHU216DAVISVP2,2013-06-10 01:12:00,
2013-06-09 21:17:00,77.7,72.1,30.05,East,86,0.0,6.0,83,0.00,,,0.00,WUHU216DAVISVP2,2013-06-10 01:17:00,
2013-06-09 21:22:00,77.2,70.9,30.05,South,172,0.0,8.0,81,0.00,,,0.00,WUHU216DAVISVP2,2013-06-10 01:22:00,
2013-06-09 21:28:00,76.8,70.6,30.06,NE,35,0.0,6.0,81,0.00,,,0.01,WUHU216DAVISVP2,2013-06-10 01:28:00,
2013-06-09 21:33:00,76.5,70.7,30.06,NE,35,0.0,4.0,82,0.01,,,0.01,WUHU216DAVISVP2,2013-06-10 01:33:00,
2013-06-09 21:38:00,76.3,70.8,30.06,WSW,241,0.0,1.0,83,0.01,,,0.01,WUHU216DAVISVP2,2013-06-10 01:38:00,
2013-06-09 21:43:00,76.1,70.6,30.06,NW,313,2.0,2.0,83,0.01,,,0.01,WUHU216DAVISVP2,2013-06-10 01:43:00,
2013-06-09 21:48:00,76.0,70.5,30.06,NW,318,0.0,2.0,83,0.02,,,0.02,WUHU216DAVISVP2,2013-06-10 01:48:00,
2013-06-09 21:53:00,75.8,70.3,30.06,NW,318,0.0,0.0,83,0.02,,,0.02,WUHU216DAVISVP2,2013-06-10 01:53:00,
2013-06-09 21:58:00,75.8,70.7,30.06,NW,318,0.0,0.0,84,0.02,,,0.02,WUHU216DAVISVP2,2013-06-10 01:58:00,
2013-06-09 22:03:00,75.6,70.5,30.06,NW,318,0.0,0.0,84,0.02,,,0.02,WUHU216DAVISVP2,2013-06-10 02:03:00,
2013-06-09 22:08:00,75.6,70.4,30.06,NW,318,0.0,0.0,84,0.02,,,0.02,WUHU216DAVISVP2,2013-06-10 02:08:00,
2013-06-09 22:13:00,75.4,70.3,30.06,NW,318,0.0,0.0,84,0.02,,,0.02,WUHU216DAVISVP2,2013-06-10 02:13:00,
2013-06-09 22:18:00,75.4,70.3,30.06,NW,318,0.0,0.0,84,0.02,,,0.02,WUHU216DAVISVP2,2013-06-10 02:18:00,
2013-06-09 22:23:00,75.4,70.6,30.06,NW,318,0.0,0.0,85,0.02,,,0.02,WUHU216DAVISVP2,2013-06-10 02:23:00,
2013-06-09 22:28:00,75.4,70.6,30.06,NW,318,0.0,0.0,85,0.01,,,0.02,WUHU216DAVISVP2,2013-06-10 02:28:00,
2013-06-09 22:33:00,75.4,70.6,30.06,NW,318,0.0,0.0,85,0.01,,,0.02,WUHU216DAVISVP2,2013-06-10 02:33:00,
2013-06-09 22:39:00,75.6,70.8,30.06,NW,318,0.0,0.0,85,0.01,,,0.02,WUHU216DAVISVP2,2013-06-10 02:39:00,
2013-06-09 22:44:00,75.6,70.8,30.06,NW,318,0.0,0.0,85,0.01,,,0.02,WUHU216DAVISVP2,2013-06-10 02:44:00,
2013-06-09 22:51:00,75.3,70.5,30.06,NW,318,0.0,0.0,85,0.00,,,0.02,WUHU216DAVISVP2,2013-06-10 02:51:00,
2013-06-09 22:56:00,75.4,70.6,30.06,NW,318,0.0,0.0,85,0.00,,,0.02,WUHU216DAVISVP2,2013-06-10 02:56:00,
2013-06-09 23:01:00,75.4,70.9,30.06,NW,318,0.0,0.0,86,0.00,,,0.02,WUHU216DAVISVP2,2013-06-10 03:01:00,
2013-06-09 23:06:00,75.4,70.9,30.06,NW,318,0.0,0.0,86,0.00,,,0.02,WUHU216DAVISVP2,2013-06-10 03:06:00,
2013-06-09 23:13:00,75.1,70.7,30.06,NW,318,0.0,0.0,86,0.00,,,0.02,WUHU216DAVISVP2,2013-06-10 03:13:00,
2013-06-09 23:18:00,75.1,70.7,30.06,NW,318,0.0,0.0,86,0.00,,,0.02,WUHU216DAVISVP2,2013-06-10 03:18:00,
2013-06-09 23:23:00,75.4,70.9,30.06,NW,318,0.0,0.0,86,0.00,,,0.02,WUHU216DAVISVP2,2013-06-10 03:23:00,
2013-06-09 23:28:00,75.3,70.8,30.06,NW,318,0.0,0.0,86,0.00,,,0.02,WUHU216DAVISVP2,2013-06-10 03:28:00,
2013-06-09 23:33:00,75.3,70.8,30.06,NW,318,0.0,0.0,86,0.00,,,0.02,WUHU216DAVISVP2,2013-06-10 03:33:00,
2013-06-09 23:38:00,75.3,70.8,30.06,NW,318,0.0,0.0,86,0.00,,,0.02,WUHU216DAVISVP2,2013-06-10 03:38:00,
2013-06-09 23:44:00,75.1,71.0,30.06,NW,318,0.0,0.0,87,0.00,,,0.02,WUHU216DAVISVP2,2013-06-10 03:44:00,
2013-06-09 23:49:00,75.3,71.2,30.06,NW,318,0.0,0.0,87,0.00,,,0.02,WUHU216DAVISVP2,2013-06-10 03:49:00,
2013-06-09 23:54:00,75.1,71.0,30.06,NW,318,0.0,0.0,87,0.00,,,0.02,WUHU216DAVISVP2,2013-06-10 03:54:00,
2013-06-09 23:59:00,75.3,71.2,30.05,NW,318,0.0,0.0,87,0.00,,,0.02,WUHU216DAVISVP2,2013-06-10 03:59:00,